Boonton, New Jersey, United States (07005)
Lat: 40.90N, Lon: 74.41W
Wx Zone: NJZ008
Local Info
Past Weather Observations for Monday, January 26, 2015

NOTE: This archive is for the closest National Weather Service station to Boonton. Information may differ from the station used for current weather conditions.

Click here for Long-term Archive

Time Weather Temperature Dewpoint Humidity Pressure Winds Precip Visibility
23:53
Overcast
Light Snow
21°F / -6°C 18°F / -8°C 86% 29.71 in
(1006 mb)
NE 11.5 mph
(NE 19 kph)
0.00 in
(0.00 mm)
2SM
23:44
Overcast
Light Snow
21°F / -6°C 18°F / -8°C 86% 29.71 in
(1006 mb)
NE 9.2 mph
(NE 15 kph)
0.00 in
(0.00 mm)
2SM
23:25
Overcast
Light Snow
21°F / -6°C 18°F / -8°C 86% 29.74 in
(1007 mb)
NE 9.2 mph
(NE 15 kph)
0.00 in
(0.00 mm)
3SM
23:02
Overcast
Light Snow
21°F / -6°C 18°F / -8°C 86% 29.74 in
(1007 mb)
NNE 8.1 mph
(NNE 13 kph)
0.00 in
(0.00 mm)
2SM
22:53
Overcast
Light Snow
21°F / -6°C 18°F / -8°C 86% 29.74 in
(1007 mb)
NNE 6.9 mph
(NNE 11 kph)
0.00 in
(0.00 mm)
1 3/4SM
22:51
Overcast
Light Snow
21°F / -6°C 18°F / -8°C 86% 29.74 in
(1007 mb)
NE 6.9 mph
(NE 11 kph)
0.00 in
(0.00 mm)
1 3/4SM
22:39
Overcast
Light Snow
21°F / -6°C 18°F / -8°C 86% 29.77 in
(1008 mb)
NNE 8.1 mph
(NNE 13 kph)
0.00 in
(0.00 mm)
2 1/2SM
21:53
Overcast
23°F / -5°C 16°F / -9°C 74% 29.8 in
(1009 mb)
N 8.1 mph
(N 13 kph)
0.00 in
(0.00 mm)
10SM
20:53
Overcast
25°F / -4°C 18°F / -8°C 74% 29.8 in
(1009 mb)
NE 9.2 mph
(NE 15 kph)
- 10SM
20:16
Overcast
27°F / -3°C 18°F / -8°C 69% 29.83 in
(1010 mb)
NE 12.7 mph
(NE 20 kph)
- 10SM
19:53
Overcast
27°F / -3°C 19°F / -7°C 74% 29.83 in
(1010 mb)
NE 15 mph
(NE 24 kph)
0.00 in
(0.00 mm)
10SM
18:53
Overcast
Light Snow
25°F / -4°C 19°F / -7°C 80% 29.86 in
(1011 mb)
NE 16.1 mph
(NE 26 kph)
0.00 in
(0.00 mm)
7SM
17:53
Overcast
Light Snow
25°F / -4°C 19°F / -7°C 80% 29.86 in
(1011 mb)
ENE 11.5 mph
(ENE 19 kph)
0.00 in
(0.00 mm)
6SM
17:02
Overcast
Light Snow
23°F / -5°C 18°F / -8°C 80% 29.86 in
(1011 mb)
NE 10.4 mph
(NE 17 kph)
0.00 in
(0.00 mm)
6SM
16:53
Overcast
Light Snow
23°F / -5°C 18°F / -8°C 80% 29.86 in
(1011 mb)
NE 10.4 mph
(NE 17 kph)
0.01 in
(0.25 mm)
5SM
16:32
Overcast
Light Snow
23°F / -5°C 18°F / -8°C 80% 29.86 in
(1011 mb)
NE 8.1 mph
(NE 13 kph)
0.01 in
(0.25 mm)
4SM
16:13
Overcast
Light Snow
21°F / -6°C 18°F / -8°C 86% 29.86 in
(1011 mb)
NE 11.5 mph
(NE 19 kph)
0.01 in
(0.25 mm)
2 1/2SM
15:53
Obscured
Light Snow
21°F / -6°C 18°F / -8°C 86% 29.86 in
(1011 mb)
NE 9.2 mph
(NE 15 kph)
0.01 in
(0.25 mm)
1SM
15:12
Obscured
Snow
21°F / -6°C 18°F / -8°C 86% 29.89 in
(1012 mb)
NE 6.9 mph
(NE 11 kph)
0.00 in
(0.00 mm)
1/2SM
14:53
Obscured
Light Snow
21°F / -6°C 18°F / -8°C 86% 29.89 in
(1012 mb)
NE 8.1 mph
(NE 13 kph)
0.04 in
(1.02 mm)
1SM
14:19
Obscured
Snow
19°F / -7°C 18°F / -8°C 93% 29.89 in
(1012 mb)
NE 9.2 mph
(NE 15 kph)
0.02 in
(0.51 mm)
1/2SM
14:02
Overcast
Light Snow
19°F / -7°C 16°F / -9°C 86% 29.92 in
(1013 mb)
NE 9.2 mph
(NE 15 kph)
0.00 in
(0.00 mm)
3/4SM
13:53
Overcast
Light Snow
21°F / -6°C 16°F / -9°C 80% 29.92 in
(1013 mb)
NE 6.9 mph
(NE 11 kph)
0.00 in
(0.00 mm)
1 1/2SM
13:49
Overcast
Light Snow
21°F / -6°C 16°F / -9°C 80% 29.89 in
(1012 mb)
NE 9.2 mph
(NE 15 kph)
0.00 in
(0.00 mm)
2SM
12:53
Overcast
Unknown Precip
21°F / -6°C 14°F / -10°C 74% 29.92 in
(1013 mb)
ENE 11.5 mph
(ENE 19 kph)
0.00 in
(0.00 mm)
9SM
11:53
Overcast
21°F / -6°C 14°F / -10°C 74% 29.95 in
(1014 mb)
ENE 12.7 mph
(ENE 20 kph)
0.00 in
(0.00 mm)
10SM
11:22
Overcast
Unknown Precip
21°F / -6°C 16°F / -9°C 80% 29.98 in
(1015 mb)
ENE 15 mph
(ENE 24 kph)
0.00 in
(0.00 mm)
5SM
11:15
Overcast
Light Snow
19°F / -7°C 16°F / -9°C 86% 29.98 in
(1015 mb)
ENE 11.5 mph
(ENE 19 kph)
0.00 in
(0.00 mm)
3SM
10:58
Overcast
Light Snow
19°F / -7°C 16°F / -9°C 86% 30.01 in
(1016 mb)
ENE 15 mph
(ENE 24 kph)
0.00 in
(0.00 mm)
2SM
10:53
Overcast
Light Snow
19°F / -7°C 16°F / -9°C 86% 30.01 in
(1016 mb)
ENE 13.8 mph
(ENE 22 kph)
0.01 in
(0.25 mm)
1 3/4SM
10:30
Obscured
Light Snow
19°F / -7°C 16°F / -9°C 86% 30.01 in
(1016 mb)
NE 9.2 mph
(NE 15 kph)
0.01 in
(0.25 mm)
1SM
10:20
Obscured
Snow
19°F / -7°C 18°F / -8°C 93% 30.01 in
(1016 mb)
ENE 5.8 mph
(ENE 9 kph)
0.01 in
(0.25 mm)
1/2SM
10:05
Overcast
Snow
19°F / -7°C 16°F / -9°C 86% 30.01 in
(1016 mb)
NE 8.1 mph
(NE 13 kph)
0.00 in
(0.00 mm)
1/2SM
09:53
Overcast
Light Snow
19°F / -7°C 14°F / -10°C 79% 30.01 in
(1016 mb)
ENE 12.7 mph
(ENE 20 kph)
0.00 in
(0.00 mm)
1 3/4SM
09:16
Overcast
Light Snow
19°F / -7°C 16°F / -9°C 86% 30.04 in
(1017 mb)
ENE 8.1 mph
(ENE 13 kph)
0.00 in
(0.00 mm)
3SM
08:53
Overcast
Light Snow
19°F / -7°C 16°F / -9°C 86% 30.01 in
(1016 mb)
ENE 8.1 mph
(ENE 13 kph)
0.00 in
(0.00 mm)
1 1/4SM
08:16
Overcast
Light Snow
19°F / -7°C 12°F / -11°C 73% 30.01 in
(1016 mb)
NE 9.2 mph
(NE 15 kph)
0.00 in
(0.00 mm)
1 3/4SM
08:01
Overcast
Light Snow
19°F / -7°C 12°F / -11°C 73% 30.01 in
(1016 mb)
ENE 10.4 mph
(ENE 17 kph)
0.00 in
(0.00 mm)
2SM
07:53
Overcast
Light Snow
19°F / -7°C 12°F / -11°C 73% 30.01 in
(1016 mb)
ENE 9.2 mph
(ENE 15 kph)
0.00 in
(0.00 mm)
3SM
06:53
Overcast
Light Snow
19°F / -7°C 10°F / -12°C 68% 30.01 in
(1016 mb)
NE 8.1 mph
(NE 13 kph)
0.00 in
(0.00 mm)
5SM
05:53
Overcast
Light Snow
19°F / -7°C 12°F / -11°C 73% 30.01 in
(1016 mb)
NE 5.8 mph
(NE 9 kph)
0.00 in
(0.00 mm)
3SM
05:35
Overcast
Light Snow
19°F / -7°C 14°F / -10°C 79% 30.04 in
(1017 mb)
ENE 8.1 mph
(ENE 13 kph)
0.00 in
(0.00 mm)
3SM
05:23
Overcast
Light Snow
19°F / -7°C 14°F / -10°C 79% 30.04 in
(1017 mb)
ENE 8.1 mph
(ENE 13 kph)
0.00 in
(0.00 mm)
2SM
05:05
Overcast
Light Snow
19°F / -7°C 14°F / -10°C 79% 30.04 in
(1017 mb)
NE 5.8 mph
(NE 9 kph)
0.00 in
(0.00 mm)
1 3/4SM
04:53
Overcast
Light Snow
19°F / -7°C 14°F / -10°C 79% 30.04 in
(1017 mb)
NE 6.9 mph
(NE 11 kph)
0.00 in
(0.00 mm)
3SM
04:45
Overcast
Light Snow
19°F / -7°C 12°F / -11°C 73% 30.04 in
(1017 mb)
ENE 8.1 mph
(ENE 13 kph)
0.00 in
(0.00 mm)
2SM
04:30
Overcast
Light Snow
19°F / -7°C 12°F / -11°C 73% 30.04 in
(1017 mb)
ENE 11.5 mph
(ENE 19 kph)
0.00 in
(0.00 mm)
1 3/4SM
04:19
Overcast
Light Snow
19°F / -7°C 10°F / -12°C 68% 30.04 in
(1017 mb)
ENE 12.7 mph
(ENE 20 kph)
0.00 in
(0.00 mm)
2SM
04:12
Overcast
Light Snow
19°F / -7°C 9°F / -13°C 63% 30.04 in
(1017 mb)
ENE 11.5 mph
(ENE 19 kph)
0.00 in
(0.00 mm)
3SM
03:53
Overcast
21°F / -6°C 1°F / -17°C 42% 30.04 in
(1017 mb)
ENE 10.4 mph
(ENE 17 kph)
- 9SM
02:53
Overcast
23°F / -5°C 3°F / -16°C 42% 30.04 in
(1017 mb)
E 12.7 mph
(E 20 kph)
- 10SM
01:53
Overcast
25°F / -4°C 7°F / -14°C 46% 30.04 in
(1017 mb)
ENE 10.4 mph
(ENE 17 kph)
- 10SM
00:53
Overcast
27°F / -3°C 9°F / -13°C 46% 30.01 in
(1016 mb)
E 9.2 mph
(E 15 kph)
- 10SM
Time Weather Temperature Dewpoint Humidity Pressure Winds Precip Visibility


Weather for websites

WeatherForYou.com, LLC is not responsible for any damages or problems caused by this service. Current weather conditions are obtained from the closest station including government and personal stations which may have varying degrees of accuracy. Weather forecasts are derived from the NOAA NDFD. Like all things, this site belongs to Jesus Christ... He just trusts me to maintain it. If you have any questions or comments email webmaster@weatherforyou.com

Copyright © 2015, WeatherForYou.com LLC. All rights reserved.